Вернуться в каталог

GLOBAL-2

АктивенСвязьSSO
NORAD 43812·PAYLOAD·🇺🇸 United States

Запущен Dec 3, 2018 с Vandenberg Space Force Base

Loading…

Ближайшие Пролёты (ближайшие 24 часа)

TLE

СвежийSource: Space-Track

Эпоха: Sep 14, 2026, 12:49 UTC

1 43812U 18099BG  26257.53435471  .00001796  00000-0  11710-3 0  9995
2 43812  97.3496 290.3279 0005252 190.9722 169.1393 15.09097786425380

Отслеживайте GLOBAL-2 в реальном времени с AllMySat

Download on the App Store